Skip Page Navigation
NASA JPL Caltech
NASA Logo - Jet Propulsion Laboratory + View the NASA Portal
+ Center for Near-Earth Object Studies
JPL Home Earth Solar System Stars & Galaxies Technology
JPL Solar System Dynamics
BODIES ORBITS EPHEMERIDES TOOLS PHYSICAL DATA DISCOVERY FAQ SITE MAP
IMPORTANT: The SSD Announcement email list is now available. Major changes are coming in the near future, including possible hostname and/or URL changes. To be notified of such changes, subscribe to this email list.

Please visit this page for more details.


JPL Small-Body Database Browser
Search: [ help ]  
437702 (2014 DX42)
Classification: Main-belt Asteroid          SPK-ID: 2437702
Ephemeris | Orbit Diagram | Orbital Elements | Mission Design | Physical Parameters | Discovery Circumstances ]

[ show orbit diagram ]
Orbital Elements at Epoch 2458600.5 (2019-Apr-27.0) TDB
Reference: JPL 12 (heliocentric ecliptic J2000)
 Element Value Uncertainty (1-sigma)   Units 
e .09084570609767048 9.4196e-08  
a 2.770180250183822 4.1038e-08 au
q 2.518521269338051 2.7926e-07 au
i 4.062374533654083 9.2937e-06 deg
node 154.8203168217552 8.8141e-05 deg
peri 202.4704493639424 9.595e-05 deg
M 185.4422999617128 3.5134e-05 deg
tp 2459417.076693313456
(2021-Jul-21.57669331)
0.00016597 TDB
period 1684.071281463755
4.61
3.7423e-05
1.025e-07
d
yr
n .2137676735910468 4.7502e-09 deg/d
Q 3.021839231029593 4.4767e-08 au
  Orbit Determination Parameters
   # obs. used (total)      150  
   data-arc span      5617 days (15.38 yr)  
   first obs. used      2003-11-24  
   last obs. used      2019-04-11  
   planetary ephem.      DE431  
   SB-pert. ephem.      SB431-N16  
   condition code      0  
   norm. resid. RMS      .59121  
   source      ORB  
   producer      Otto Matic  
   solution date      2019-Jul-14 15:58:06  

Additional Information
 Earth MOID = 1.5137 au 
 Jupiter MOID = 2.3828 au 
 T_jup = 3.328 
[ show covariance matrix ]

Ephemeris | Orbit Diagram | Orbital Elements | Mission Design | Physical Parameters | Discovery Circumstances ]

Physical Parameter Table
Parameter Symbol Value Units Sigma Reference Notes
absolute magnitude H 16.5   n/a MPO386681  

437702 (2014 DX42)          Discovered 2005-Mar-04 by Mt. Lemmon Survey at Mount Lemmon
Reference: Last Updated: 2015-06-04

Alternate Designations
 2014 DX42 = 2010 FQ100 = 2012 UO167 
Ephemeris | Orbit Diagram | Orbital Elements | Mission Design | Physical Parameters | Discovery Circumstances ]
ABOUT SSD CREDITS/AWARDS PRIVACY/COPYRIGHT GLOSSARY LINKS
FirstGov 2019-Dec-08 08:46 UT
(server date/time)  
NASA Home Page
Site Manager:   Ryan S. Park
Webmaster  Alan B. Chamberlin